TimeCDT,TemperatureF,Dew PointF,Humidity,Sea Level PressureIn,VisibilityMPH,Wind Direction,Wind SpeedMPH,Gust SpeedMPH,PrecipitationIn,Events,Conditions,WindDirDegrees,DateUTC
12:52 AM,46.0,44.1,93,29.97,10.0,Calm,Calm,-,N/A,,Clear,0,2013-09-22 05:52:00
1:52 AM,46.0,44.1,93,29.99,10.0,Calm,Calm,-,N/A,,Clear,0,2013-09-22 06:52:00
2:52 AM,46.9,44.1,90,29.98,10.0,East,4.6,-,N/A,,Clear,80,2013-09-22 07:52:00
3:52 AM,46.0,43.0,89,29.99,10.0,East,4.6,-,N/A,,Clear,100,2013-09-22 08:52:00
4:52 AM,46.9,44.1,90,30.00,10.0,ESE,4.6,-,N/A,,Clear,110,2013-09-22 09:52:00
5:52 AM,46.0,43.0,89,30.00,10.0,ESE,4.6,-,N/A,,Clear,120,2013-09-22 10:52:00
6:52 AM,44.1,42.1,93,30.03,9.0,Calm,Calm,-,N/A,,Clear,0,2013-09-22 11:52:00
7:52 AM,50.0,46.9,89,30.04,10.0,Calm,Calm,-,N/A,,Clear,0,2013-09-22 12:52:00
8:52 AM,55.0,48.0,77,30.07,10.0,SE,4.6,-,N/A,,Clear,130,2013-09-22 13:52:00
9:52 AM,60.1,46.9,62,30.07,10.0,SSE,5.8,-,N/A,,Clear,150,2013-09-22 14:52:00
10:52 AM,63.0,46.9,56,30.07,10.0,SE,6.9,-,N/A,,Clear,130,2013-09-22 15:52:00
11:52 AM,64.9,48.0,54,30.06,10.0,Variable,4.6,-,N/A,,Clear,0,2013-09-22 16:52:00
12:52 PM,66.0,46.9,50,30.04,10.0,ESE,4.6,-,N/A,,Clear,110,2013-09-22 17:52:00
1:52 PM,68.0,46.9,47,30.03,10.0,NE,4.6,-,N/A,,Clear,40,2013-09-22 18:52:00
2:52 PM,69.1,46.9,45,30.01,10.0,Calm,Calm,-,N/A,,Clear,0,2013-09-22 19:52:00
3:52 PM,70.0,46.9,44,29.99,10.0,Variable,4.6,-,N/A,,Clear,0,2013-09-22 20:52:00
4:52 PM,70.0,45.0,41,29.97,10.0,SE,8.1,-,N/A,,Clear,130,2013-09-22 21:52:00
5:52 PM,69.1,45.0,42,29.97,10.0,ESE,6.9,-,N/A,,Clear,110,2013-09-22 22:52:00
6:52 PM,60.1,46.0,60,29.98,10.0,East,5.8,-,N/A,,Clear,90,2013-09-22 23:52:00
7:52 PM,55.9,45.0,67,29.99,10.0,East,5.8,-,N/A,,Clear,80,2013-09-23 00:52:00
8:52 PM,55.9,46.0,69,29.99,10.0,East,6.9,-,N/A,,Clear,100,2013-09-23 01:52:00
9:52 PM,54.0,46.0,75,30.01,10.0,ESE,5.8,-,N/A,,Clear,110,2013-09-23 02:52:00
10:52 PM,51.1,45.0,80,30.01,10.0,SE,5.8,-,N/A,,Clear,130,2013-09-23 03:52:00
11:52 PM,46.9,43.0,86,30.03,10.0,East,5.8,-,N/A,,Clear,90,2013-09-23 04:52:00